This demonstration page uses our WeatherBlox Daily Observations layout. Learn more.

Left ArrowRight Arrow

Hourly Observations for May 9, 2016

Temp ( °F °C ) Dew Point ( °F °C ) Humidity (%) Winds ( mph kmh ) Pressure ( in mb ) Visibility ( mi km ) Precip ( " mm )
12:53 am 00:53 Mostly Cloudy 54 12.2 50 10 87 87 N N/A 30.02 1017 10 16 N/A
1:53 am 01:53 Cloudy 54 12.2 50 10 87 87 E 5 7 30.01 1016 10 16 N/A
2:53 am 02:53 Cloudy with Light Rain 54 12.2 52 11.1 93 93 SSW 3 6 30.02 1017 7 11 0.02 0.51
3:53 am 03:53 Cloudy with Light Rain 53 11.7 52 11.1 96 96 E 5 7 29.99 1016 10 16 0.09 2.29
4:53 am 04:53 Cloudy 54 12.2 52 11.1 93 93 N N/A 29.99 1016 10 16 0.01 0.25
5:53 am 05:53 Cloudy with Light Rain 53 11.7 51 10.6 93 93 NE 7 11 30.01 1016 9 14 0.01 0.25
6:53 am 06:53 Cloudy with Light Rain 53 11.7 51 10.6 93 93 E 6 9 30.03 1017 6 10 0.03 0.76
7:53 am 07:53 Cloudy with Light Rain 53 11.7 50 10 89 89 E 7 11 30.04 1017 7 11 0.03 0.76
8:53 am 08:53 Cloudy 53 11.7 51 10.6 93 93 E 3 6 30.07 1018 9 14 0.01 0.25
9:53 am 09:53 Cloudy 54 12.2 52 11.1 93 93 E 6 9 30.06 1018 9 14 N/A
10:53 am 10:53 Mostly Cloudy 57 13.9 52 11.1 83 83 E 13 20 30.06 1018 10 16 N/A
11:53 am 11:53 Mostly Cloudy 58 14.4 53 11.7 84 84 ENE 8 13 30.07 1018 9 14 N/A
12:53 pm 12:53 Cloudy with Light Rain 59 15 53 11.7 81 81 E 10 17 30.06 1018 9 14 N/A
1:53 pm 13:53 Cloudy with Light Rain 60 15.6 55 12.8 84 84 E 9 15 30.06 1018 6 10 0.01 0.25
2:01 pm 14:01 Cloudy with Light Rain 60 15.6 55 12.8 84 84 E 9 15 30.06 1018 7 11 N/A
2:10 pm 14:10 Cloudy with Light Rain 60 15.6 55 12.8 84 84 E 9 15 30.06 1018 8 13 N/A
2:53 pm 14:53 Cloudy with Light Rain 59 15 55 12.8 87 87 VRB 3 6 30.08 1019 4 6 0.01 0.25
3:53 pm 15:53 Cloudy with Light Rain 61 16.1 55 12.8 81 81 ENE 7 11 30.06 1018 7 11 0.02 0.51
4:53 pm 16:53 Cloudy with Light Rain 61 16.1 56 13.3 84 84 ESE 5 7 30.05 1018 6 10 N/A
5:53 pm 17:53 Cloudy with Light Rain 60 15.6 56 13.3 86 86 E 5 7 30.05 1018 3 5 0.02 0.51
6:53 pm 18:53 Cloudy with Light Rain 59 15 57 13.9 93 93 E 9 15 30.01 1016 5 8 0.02 0.51
7:53 pm 19:53 Cloudy with Light Rain 59 15 56 13.3 90 90 ESE 5 7 30.02 1017 6 10 N/A
8:53 pm 20:53 Cloudy with Light Rain 59 15 57 13.9 93 93 E 6 9 30.01 1016 8 13 0.01 0.25
9:53 pm 21:53 Mostly Cloudy 58 14.4 56 13.3 93 93 E 6 9 30.03 1017 7 11 N/A
10:53 pm 22:53 Clear 58 14.4 56 13.3 93 93 E 6 9 30.03 1017 7 11 N/A
11:53 pm 23:53 Mostly Cloudy 58 14.4 56 13.3 93 93 E 7 11 30.03 1017 7 11 N/A

Powered by AerisWeather